#timestamp,LO_Frequency,Hit,StdDev 
1589112015.5,286047004.4,N
1589112035.3,286047001.3,N
1589112055.2,286047003.8,N
1589112075.0,286047003.9,N
1589112075.9,286047003.9,N
1589112095.8,286047003.3,N
1589112115.6,286047001.8,N
1589112135.4,286047002.2,N
1589112155.3,286047000.6,N
1589112175.1,286047000.6,N
1589112195.9,286047001.1,N
1589112215.7,286047000.5,N
1589112235.5,286047000.3,N
1589112255.4,286047000.8,N
1589112275.2,286046998.9,N
1589112295.0,286046998.3,N
1589112295.9,286046998.3,N
1589112315.8,286047000.7,N
1589112335.6,286047002.3,N
1589112355.5,286047002.5,N
1589112375.3,286047002.3,N
1589112395.1,286047000.2,N
1589112415.9,286047000.6,N
1589112435.7,286047000.4,N
1589112455.5,286047001.2,N
1589112475.4,286046998.4,N
1589112495.2,286046999.0,N
1589112515.1,286046999.4,N
1589112516.0,286046999.4,N
1589112535.8,286046999.3,N
1589112555.6,286046999.3,N
1589112575.5,286046999.3,N
1589112595.3,286046998.9,N
1589112615.2,286046998.4,N
1589112635.9,286046998.8,N
1589112655.7,286046998.1,N
1589112675.6,286047000.8,N
1589112695.4,286046998.2,N
1589112715.2,286047000.7,N
1589112735.1,286047001.0,N
1589112736.0,286047001.0,N
1589112755.8,286046999.8,N
1589112775.7,286047000.3,N
1589112795.5,286047002.3,N
1589112815.3,286047002.7,N
1589112835.2,286047000.4,N
1589112855.0,286047000.0,N
1589112855.9,286047000.0,N
1589112875.8,286047000.3,N
1589112895.6,286047001.2,N
1589112915.4,286046998.4,N
1589112935.3,286046998.7,N
1589112955.1,286046997.1,N
1589112975.8,286046996.9,N
1589112995.7,286046999.0,N
1589113015.5,286046998.6,N
1589113035.4,286046998.8,N
1589113055.2,286047000.6,N
1589113075.0,286046998.4,N
1589113075.9,286046998.4,N
1589113095.8,286047001.1,N
1589113115.6,286046996.5,N
1589113135.5,286046998.7,N
1589113155.3,286047000.7,N
1589113175.1,286047000.2,N
1589113195.9,286047004.1,N
1589113215.7,286047004.0,N
1589113235.5,286047004.0,N
1589113255.4,286047003.5,N
1589113275.2,286047003.9,N
1589113295.1,286047001.8,N
1589113296.0,286047001.8,N
1589113315.8,286047002.0,N
1589113335.6,286047002.5,N
1589113355.5,286047002.4,N
1589113375.3,286047002.1,N
1589113395.1,286047002.8,N
1589113415.9,286046999.8,N
1589113435.7,286047004.4,N
1589113455.6,286047002.2,N
1589113475.4,286047002.3,N
1589113495.2,286047001.0,N
1589113515.1,286047000.6,N
1589113516.0,286047000.6,N
1589113535.8,286047003.1,N
1589113555.7,286047001.9,N
1589113575.5,286047001.7,N
1589113595.3,286047004.4,N
1589113615.2,286047002.1,N
1589113635.0,286047002.3,N
1589113635.9,286047002.3,N
1589113655.7,286046998.2,N
1589113675.6,286047001.1,N
1589113695.4,286046998.3,N
1589113715.3,286046998.4,N
1589113735.1,286046997.0,N
1589113755.8,286046997.4,N
1589113775.7,286046998.4,N
1589113795.5,286046996.5,N
1589113815.3,286046998.3,N
1589113835.2,286046997.0,N
1589113855.0,286046997.3,N
1589113855.9,286046997.3,N
1589113875.8,286046996.7,N
1589113895.6,286046996.7,N
1589113915.4,286046999.0,N
1589113935.3,286046997.8,N
1589113955.1,286046998.1,N
1589113975.9,286046999.0,N
1589113995.7,286046999.6,N
1589114015.5,286046998.4,N
1589114035.4,286046999.5,N
1589114055.2,286046996.9,N
1589114075.0,286046995.3,N
1589114075.9,286046995.3,N
1589114095.8,286046995.1,N
1589114115.6,286046997.2,N
1589114135.5,286046998.3,N
1589114155.3,286046999.9,N
1589114175.1,286046998.3,N
1589114195.9,286046999.7,N
1589114215.7,286047001.2,N
1589114235.6,286047001.1,N
1589114255.4,286046998.2,N
1589114275.2,286047000.6,N
1589114295.1,286047001.2,N
1589114296.0,286047001.2,N
1589114315.8,286046999.8,N
1589114335.6,286047000.0,N
1589114355.5,286047001.0,N
1589114375.3,286047000.9,N
1589114395.2,286047002.4,N
1589114415.9,286046999.9,N
1589114435.7,286047001.0,N
1589114455.6,286047000.8,N
1589114475.4,286046998.5,N
1589114495.2,286046998.6,N
1589114515.1,286046998.8,N
1589114516.0,286046998.8,N
1589114535.8,286046999.0,N
1589114555.7,286046998.8,N
1589114575.5,286046998.3,N
1589114595.3,286046998.2,N
1589114615.2,286047001.0,N
1589114635.0,286046998.6,N
1589114635.9,286046998.6,N
1589114655.8,286046998.4,N
1589114675.6,286046998.3,N
1589114695.4,286046998.5,N
1589114715.3,286046999.0,N
1589114735.1,286046998.3,N
1589114755.8,286046999.0,N
1589114775.7,286046999.1,N
1589114795.5,286046999.4,N
1589114815.4,286046999.5,N
1589114835.2,286046998.4,N
1589114855.0,286046996.6,Y
1589114855.9,286046996.6,P
1589114875.8,286046999.1,N
1589114895.6,286046998.7,N
1589114915.5,286046998.9,N
1589114935.3,286046999.6,N
1589114955.1,286046997.1,N
1589114975.9,286046997.4,N
1589114995.7,286046997.5,N
1589115015.5,286046996.8,Y
1589115035.4,286046998.9,P
1589115055.2,286046998.2,P
1589115075.1,286046998.7,P
1589115076.0,286046998.7,Y
1589115095.8,286047000.5,P
1589115115.6,286047000.0,N
1589115135.5,286046999.9,N
1589115155.3,286047000.0,N
1589115175.2,286047001.1,N
1589115195.9,286046999.2,N
1589115215.7,286046999.6,N
1589115235.6,286046998.7,N
1589115255.4,286047001.2,N
1589115275.2,286047001.2,N
1589115295.1,286047000.3,N
1589115296.0,286047000.3,N
1589115315.8,286046998.5,N
1589115335.7,286046999.2,N
1589115355.5,286046999.4,N
1589115375.3,286047000.8,N
1589115395.2,286046998.7,N
1589115415.0,286047001.1,N
1589115415.9,286047001.1,N
1589115435.8,286046998.5,N
1589115455.6,286047000.0,N
1589115475.4,286047001.1,N
1589115495.3,286047000.0,N
1589115515.1,286046998.3,N
1589115535.8,286047001.2,N
1589115555.7,286046998.6,N
1589115575.5,286046998.4,N
1589115595.4,286047002.7,N
